Zurück zum Katalog

STARLINK-32313

AktivKommunikationVLEO
NORAD 61527·PAYLOAD·🇺🇸 United States

Gestartet Oct 15, 2024 von Cape Canaveral Space Force Station

Loading…

Nächste Überflüge (nächste 24 Stunden)

TLE

AktuellSource: CelesTrak SupGP

Epoche: Sep 14, 2026, 22:17 UTC

1 61527C 24183U   26257.92895833 -.00155460  00000+0 -45908-2 0  2575
2 61527  53.1590 341.5559 0001159  88.6293 225.9605 15.34484071    17

Verfolge STARLINK-32313 in Echtzeit mit AllMySat

Download on the App Store